Time,TemperatureF,DewpointF,PressureIn,WindDirection,WindDirectionDegrees,WindSpeedMPH,WindSpeedGustMPH,Humidity,HourlyPrecipIn,Conditions,Clouds,dailyrainin,SoftwareType,DateUTC
2013-06-23 00:02:00,45.9,43.7,24.19,South,180,7.0,9.0,92,0.00,,,0.00,meteohub,2013-06-23 06:02:00,
2013-06-23 00:07:00,45.9,43.7,24.19,South,180,7.0,8.0,92,0.00,,,0.00,meteohub,2013-06-23 06:07:00,
2013-06-23 00:12:00,46.2,42.8,24.18,SW,225,8.0,8.0,88,0.00,,,0.00,meteohub,2013-06-23 06:12:00,
2013-06-23 00:17:00,46.8,42.8,24.18,South,180,8.0,8.0,86,0.00,,,0.00,meteohub,2013-06-23 06:17:00,
2013-06-23 00:22:00,47.3,41.7,24.18,SW,225,11.0,11.0,81,0.00,,,0.00,meteohub,2013-06-23 06:22:00,
2013-06-23 00:27:00,47.8,41.9,24.18,SW,225,10.0,12.0,80,0.00,,,0.00,meteohub,2013-06-23 06:27:00,
2013-06-23 00:32:00,48.2,41.7,24.18,SW,225,12.0,12.0,78,0.00,,,0.00,meteohub,2013-06-23 06:32:00,
2013-06-23 00:37:00,48.0,41.5,24.17,SW,225,11.0,12.0,78,0.00,,,0.00,meteohub,2013-06-23 06:37:00,
2013-06-23 00:42:00,48.2,41.7,24.17,SW,225,10.0,12.0,78,0.00,,,0.00,meteohub,2013-06-23 06:42:00,
2013-06-23 00:47:00,48.0,40.8,24.17,SW,225,11.0,12.0,76,0.00,,,0.00,meteohub,2013-06-23 06:47:00,
2013-06-23 00:52:00,47.8,41.7,24.17,South,180,8.0,12.0,79,0.00,,,0.00,meteohub,2013-06-23 06:52:00,
2013-06-23 00:57:00,46.6,42.3,24.17,South,180,4.0,15.0,85,0.00,,,0.00,meteohub,2013-06-23 06:57:00,
2013-06-23 01:02:00,46.2,42.8,24.17,South,180,6.0,15.0,88,0.00,,,0.00,meteohub,2013-06-23 07:02:00,
2013-06-23 01:07:00,46.2,42.8,24.17,South,180,6.0,8.0,88,0.00,,,0.00,meteohub,2013-06-23 07:07:00,
2013-06-23 01:12:00,46.9,42.1,24.17,South,180,6.0,11.0,83,0.00,,,0.00,meteohub,2013-06-23 07:12:00,
2013-06-23 01:17:00,46.4,42.4,24.17,SW,225,7.0,11.0,86,0.00,,,0.00,meteohub,2013-06-23 07:17:00,
2013-06-23 01:22:00,45.7,42.3,24.17,South,180,4.0,11.0,88,0.00,,,0.00,meteohub,2013-06-23 07:22:00,
2013-06-23 01:27:00,45.1,42.4,24.17,South,180,3.0,8.0,90,0.00,,,0.00,meteohub,2013-06-23 07:27:00,
2013-06-23 01:32:00,45.0,42.4,24.16,SE,135,4.0,8.0,91,0.00,,,0.00,meteohub,2013-06-23 07:32:00,
2013-06-23 01:37:00,44.6,42.4,24.16,SSE,158,4.0,7.0,92,0.00,,,0.00,meteohub,2013-06-23 07:37:00,
2013-06-23 01:42:00,44.6,42.1,24.16,South,180,8.0,8.0,91,0.00,,,0.00,meteohub,2013-06-23 07:42:00,
2013-06-23 01:47:00,45.0,41.5,24.16,South,180,11.0,11.0,88,0.00,,,0.00,meteohub,2013-06-23 07:47:00,
2013-06-23 01:52:00,45.5,41.5,24.16,SSW,203,7.0,11.0,86,0.00,,,0.00,meteohub,2013-06-23 07:52:00,
2013-06-23 01:57:00,45.1,41.5,24.16,SW,225,6.0,14.0,87,0.00,,,0.00,meteohub,2013-06-23 07:57:00,
2013-06-23 02:02:00,45.1,41.5,24.16,South,180,6.0,14.0,87,0.00,,,0.00,meteohub,2013-06-23 08:02:00,
2013-06-23 02:07:00,45.1,41.5,24.16,South,180,6.0,8.0,87,0.00,,,0.00,meteohub,2013-06-23 08:07:00,
2013-06-23 02:12:00,45.1,41.5,24.16,SW,225,9.0,9.0,87,0.00,,,0.00,meteohub,2013-06-23 08:12:00,
2013-06-23 02:17:00,45.3,41.0,24.15,South,180,8.0,9.0,85,0.00,,,0.00,meteohub,2013-06-23 08:17:00,
2013-06-23 02:22:00,45.0,40.6,24.16,SSW,203,9.0,10.0,85,0.00,,,0.00,meteohub,2013-06-23 08:22:00,
2013-06-23 02:27:00,44.8,40.8,24.16,South,180,10.0,10.0,86,0.00,,,0.00,meteohub,2013-06-23 08:27:00,
2013-06-23 02:32:00,45.0,41.0,24.16,SSW,203,8.0,10.0,86,0.00,,,0.00,meteohub,2013-06-23 08:32:00,
2013-06-23 02:37:00,44.6,40.5,24.16,SSW,203,9.0,10.0,85,0.00,,,0.00,meteohub,2013-06-23 08:37:00,
2013-06-23 02:42:00,44.6,40.1,24.15,South,180,11.0,11.0,84,0.00,,,0.00,meteohub,2013-06-23 08:42:00,
2013-06-23 02:47:00,45.3,40.1,24.15,South,180,8.0,11.0,82,0.00,,,0.00,meteohub,2013-06-23 08:47:00,
2013-06-23 02:52:00,45.5,39.7,24.15,SW,225,11.0,11.0,80,0.00,,,0.00,meteohub,2013-06-23 08:52:00,
2013-06-23 02:57:00,45.7,39.2,24.15,SW,225,9.0,11.0,78,0.00,,,0.00,meteohub,2013-06-23 08:57:00,
2013-06-23 03:02:00,45.9,39.0,24.14,SW,225,10.0,11.0,77,0.00,,,0.00,meteohub,2013-06-23 09:02:00,
2013-06-23 03:07:00,45.9,39.0,24.14,SW,225,10.0,11.0,77,0.00,,,0.00,meteohub,2013-06-23 09:07:00,
2013-06-23 03:12:00,46.2,39.0,24.14,South,180,7.0,10.0,76,0.00,,,0.00,meteohub,2013-06-23 09:12:00,
2013-06-23 03:17:00,46.0,39.2,24.14,South,180,12.0,12.0,77,0.00,,,0.00,meteohub,2013-06-23 09:17:00,
2013-06-23 03:22:00,46.2,38.7,24.14,South,180,10.0,12.0,75,0.00,,,0.00,meteohub,2013-06-23 09:22:00,
2013-06-23 03:27:00,46.2,38.7,24.14,SW,225,8.0,12.0,75,0.00,,,0.00,meteohub,2013-06-23 09:27:00,
2013-06-23 03:32:00,46.0,38.8,24.14,SW,225,8.0,12.0,76,0.00,,,0.00,meteohub,2013-06-23 09:32:00,
2013-06-23 03:37:00,45.9,38.3,24.14,SW,225,13.0,13.0,75,0.00,,,0.00,meteohub,2013-06-23 09:37:00,
2013-06-23 03:42:00,45.9,38.3,24.14,SW,225,10.0,13.0,75,0.00,,,0.00,meteohub,2013-06-23 09:42:00,
2013-06-23 03:47:00,45.9,38.3,24.14,South,180,11.0,13.0,75,0.00,,,0.00,meteohub,2013-06-23 09:47:00,
2013-06-23 03:52:00,45.3,38.5,24.14,SSW,203,11.0,13.0,77,0.00,,,0.00,meteohub,2013-06-23 09:52:00,
2013-06-23 03:57:00,45.0,38.5,24.14,SW,225,11.0,12.0,78,0.00,,,0.00,meteohub,2013-06-23 09:57:00,
2013-06-23 04:02:00,45.1,38.7,24.14,SW,225,13.0,15.0,78,0.00,,,0.00,meteohub,2013-06-23 10:02:00,
2013-06-23 04:07:00,45.1,38.7,24.13,SW,225,13.0,15.0,78,0.00,,,0.00,meteohub,2013-06-23 10:07:00,
2013-06-23 04:12:00,45.9,38.1,24.13,SW,225,15.0,15.0,74,0.00,,,0.00,meteohub,2013-06-23 10:12:00,
2013-06-23 04:17:00,45.9,38.1,24.13,SW,225,12.0,15.0,74,0.00,,,0.00,meteohub,2013-06-23 10:17:00,
2013-06-23 04:22:00,45.7,37.9,24.13,WNW,293,11.0,15.0,74,0.00,,,0.00,meteohub,2013-06-23 10:22:00,
2013-06-23 04:27:00,45.7,37.9,24.13,SW,225,11.0,15.0,74,0.00,,,0.00,meteohub,2013-06-23 10:27:00,
2013-06-23 04:32:00,45.5,37.8,24.13,SW,225,11.0,15.0,74,0.00,,,0.00,meteohub,2013-06-23 10:32:00,
2013-06-23 04:37:00,45.5,37.8,24.13,SW,225,12.0,14.0,74,0.00,,,0.00,meteohub,2013-06-23 10:37:00,
2013-06-23 04:42:00,45.7,37.6,24.13,SW,225,11.0,14.0,73,0.00,,,0.00,meteohub,2013-06-23 10:42:00,
2013-06-23 04:47:00,45.7,37.9,24.13,SW,225,10.0,14.0,74,0.00,,,0.00,meteohub,2013-06-23 10:47:00,
2013-06-23 04:52:00,45.5,37.8,24.13,SW,225,14.0,14.0,74,0.00,,,0.00,meteohub,2013-06-23 10:52:00,
2013-06-23 04:57:00,45.7,37.9,24.13,SSW,203,12.0,14.0,74,0.00,,,0.00,meteohub,2013-06-23 10:57:00,
2013-06-23 05:02:00,45.7,37.9,24.12,SW,225,14.0,16.0,74,0.00,,,0.00,meteohub,2013-06-23 11:02:00,
2013-06-23 05:07:00,45.7,37.9,24.13,SW,225,14.0,16.0,74,0.00,,,0.00,meteohub,2013-06-23 11:07:00,
2013-06-23 05:12:00,45.7,37.6,24.13,SW,225,15.0,16.0,73,0.00,,,0.00,meteohub,2013-06-23 11:12:00,
2013-06-23 05:17:00,45.9,37.8,24.13,SW,225,15.0,17.0,73,0.00,,,0.00,meteohub,2013-06-23 11:17:00,
2013-06-23 05:22:00,46.2,37.8,24.13,SW,225,17.0,17.0,72,0.00,,,0.00,meteohub,2013-06-23 11:22:00,
2013-06-23 05:27:00,46.4,37.6,24.13,West,270,18.0,20.0,71,0.00,,,0.00,meteohub,2013-06-23 11:27:00,
2013-06-23 05:32:00,46.8,37.2,24.12,WNW,293,21.0,21.0,69,0.00,,,0.00,meteohub,2013-06-23 11:32:00,
2013-06-23 05:37:00,46.6,37.8,24.13,SW,225,11.0,21.0,71,0.00,,,0.00,meteohub,2013-06-23 11:37:00,
2013-06-23 05:42:00,46.0,37.6,24.12,SW,225,11.0,21.0,72,0.00,,,0.00,meteohub,2013-06-23 11:42:00,
2013-06-23 05:47:00,46.2,37.8,24.12,SW,225,12.0,21.0,72,0.00,,,0.00,meteohub,2013-06-23 11:47:00,
2013-06-23 05:52:00,46.9,37.6,24.12,SW,225,11.0,15.0,70,0.00,,,0.00,meteohub,2013-06-23 11:52:00,
2013-06-23 05:57:00,47.5,37.8,24.12,SW,225,10.0,15.0,69,0.00,,,0.00,meteohub,2013-06-23 11:57:00,
2013-06-23 06:02:00,47.5,37.4,24.12,SW,225,12.0,15.0,68,0.00,,,0.00,meteohub,2013-06-23 12:02:00,
2013-06-23 06:07:00,47.5,37.4,24.12,SW,225,12.0,13.0,68,0.00,,,0.00,meteohub,2013-06-23 12:07:00,
2013-06-23 06:12:00,48.4,37.9,24.12,SW,225,10.0,12.0,67,0.00,,,0.00,meteohub,2013-06-23 12:12:00,
2013-06-23 06:17:00,48.2,38.5,24.12,South,180,8.0,16.0,69,0.00,,,0.00,meteohub,2013-06-23 12:17:00,
2013-06-23 06:22:00,47.8,38.1,24.12,South,180,8.0,16.0,69,0.00,,,0.00,meteohub,2013-06-23 12:22:00,
2013-06-23 06:27:00,48.4,38.3,24.12,SW,225,11.0,11.0,68,0.00,,,0.00,meteohub,2013-06-23 12:27:00,
2013-06-23 06:32:00,48.7,38.7,24.12,South,180,13.0,13.0,68,0.00,,,0.00,meteohub,2013-06-23 12:32:00,
2013-06-23 06:37:00,48.9,37.8,24.12,SW,225,12.0,14.0,65,0.00,,,0.00,meteohub,2013-06-23 12:37:00,
2013-06-23 06:42:00,48.0,38.7,24.12,SSW,203,11.0,14.0,70,0.00,,,0.00,meteohub,2013-06-23 12:42:00,
2013-06-23 06:47:00,47.7,39.7,24.12,South,180,7.0,14.0,74,0.00,,,0.00,meteohub,2013-06-23 12:47:00,
2013-06-23 06:52:00,47.5,39.6,24.12,SE,135,6.0,14.0,74,0.00,,,0.00,meteohub,2013-06-23 12:52:00,
2013-06-23 06:57:00,46.9,39.7,24.12,SE,135,8.0,11.0,76,0.00,,,0.00,meteohub,2013-06-23 12:57:00,
2013-06-23 07:02:00,46.6,39.4,24.12,South,180,8.0,9.0,76,0.00,,,0.00,meteohub,2013-06-23 13:02:00,
2013-06-23 07:07:00,46.6,39.4,24.12,South,180,8.0,9.0,76,0.00,,,0.00,meteohub,2013-06-23 13:07:00,
2013-06-23 07:12:00,47.7,39.7,24.12,South,180,8.0,9.0,74,0.00,,,0.00,meteohub,2013-06-23 13:12:00,
2013-06-23 07:17:00,47.7,41.2,24.12,South,180,8.0,8.0,78,0.00,,,0.00,meteohub,2013-06-23 13:17:00,
2013-06-23 07:22:00,47.5,40.6,24.12,South,180,8.0,8.0,77,0.00,,,0.00,meteohub,2013-06-23 13:22:00,
2013-06-23 07:27:00,48.2,39.9,24.12,South,180,7.0,8.0,73,0.00,,,0.00,meteohub,2013-06-23 13:27:00,
2013-06-23 07:32:00,48.9,39.9,24.12,South,180,7.0,8.0,71,0.00,,,0.00,meteohub,2013-06-23 13:32:00,
2013-06-23 07:37:00,50.2,40.5,24.12,SW,225,8.0,8.0,69,0.00,,,0.00,meteohub,2013-06-23 13:37:00,
2013-06-23 07:42:00,50.7,40.5,24.12,South,180,9.0,10.0,68,0.00,,,0.00,meteohub,2013-06-23 13:42:00,
2013-06-23 07:47:00,50.4,40.6,24.12,South,180,9.0,10.0,69,0.00,,,0.00,meteohub,2013-06-23 13:47:00,
2013-06-23 07:52:00,50.7,41.0,24.12,South,180,8.0,11.0,69,0.00,,,0.00,meteohub,2013-06-23 13:52:00,
2013-06-23 07:57:00,51.6,41.7,24.12,SSW,203,7.0,11.0,69,0.00,,,0.00,meteohub,2013-06-23 13:57:00,
2013-06-23 08:02:00,51.8,42.3,24.12,SW,225,6.0,10.0,70,0.00,,,0.00,meteohub,2013-06-23 14:02:00,
2013-06-23 08:07:00,51.8,42.3,24.12,SW,225,6.0,8.0,70,0.00,,,0.00,meteohub,2013-06-23 14:07:00,
2013-06-23 08:12:00,51.6,42.4,24.12,South,180,8.0,8.0,71,0.00,,,0.00,meteohub,2013-06-23 14:12:00,
2013-06-23 08:17:00,51.1,43.5,24.12,South,180,8.0,8.0,75,0.00,,,0.00,meteohub,2013-06-23 14:17:00,
2013-06-23 08:22:00,51.8,41.9,24.12,South,180,8.0,8.0,69,0.00,,,0.00,meteohub,2013-06-23 14:22:00,
2013-06-23 08:27:00,51.8,42.6,24.12,South,180,10.0,10.0,71,0.00,,,0.00,meteohub,2013-06-23 14:27:00,
2013-06-23 08:32:00,52.0,43.5,24.12,South,180,8.0,10.0,73,0.00,,,0.00,meteohub,2013-06-23 14:32:00,
2013-06-23 08:42:00,51.3,42.6,24.12,SE,135,10.0,10.0,72,0.00,,,0.00,meteohub,2013-06-23 14:42:00,
2013-06-23 08:47:00,50.7,42.8,24.12,South,180,10.0,10.0,74,0.00,,,0.00,meteohub,2013-06-23 14:47:00,
2013-06-23 08:52:00,51.3,43.0,24.12,South,180,8.0,10.0,73,0.00,,,0.00,meteohub,2013-06-23 14:52:00,
2013-06-23 08:57:00,51.3,43.0,24.12,SE,135,8.0,10.0,73,0.00,,,0.00,meteohub,2013-06-23 14:57:00,
2013-06-23 09:02:00,52.0,43.2,24.12,SSE,158,5.0,10.0,72,0.00,,,0.00,meteohub,2013-06-23 15:02:00,
2013-06-23 09:12:00,52.2,43.0,24.12,South,180,8.0,8.0,71,0.00,,,0.00,meteohub,2013-06-23 15:12:00,
2013-06-23 09:17:00,52.9,44.1,24.12,SE,135,7.0,11.0,72,0.00,,,0.00,meteohub,2013-06-23 15:17:00,
2013-06-23 09:22:00,52.9,43.3,24.12,SE,135,9.0,11.0,70,0.00,,,0.00,meteohub,2013-06-23 15:22:00,
2013-06-23 09:27:00,52.3,43.5,24.11,SE,135,9.0,10.0,72,0.00,,,0.00,meteohub,2013-06-23 15:27:00,
2013-06-23 09:32:00,52.5,43.7,24.11,SE,135,9.0,10.0,72,0.00,,,0.00,meteohub,2013-06-23 15:32:00,
2013-06-23 09:37:00,52.9,44.1,24.11,South,180,11.0,11.0,72,0.00,,,0.00,meteohub,2013-06-23 15:37:00,
2013-06-23 09:42:00,52.9,43.7,24.11,SE,135,10.0,12.0,71,0.00,,,0.00,meteohub,2013-06-23 15:42:00,
2013-06-23 09:47:00,53.1,43.5,24.11,South,180,12.0,12.0,70,0.00,,,0.00,meteohub,2013-06-23 15:47:00,
2013-06-23 09:52:00,53.8,44.2,24.11,South,180,9.0,12.0,70,0.00,,,0.00,meteohub,2013-06-23 15:52:00,
2013-06-23 09:57:00,54.3,44.1,24.11,South,180,10.0,12.0,68,0.00,,,0.00,meteohub,2013-06-23 15:57:00,
2013-06-23 10:07:00,54.7,44.8,24.11,South,180,11.0,11.0,69,0.00,,,0.00,meteohub,2013-06-23 16:07:00,
2013-06-23 10:12:00,54.9,43.7,24.10,SE,135,12.0,13.0,66,0.00,,,0.00,meteohub,2013-06-23 16:12:00,
2013-06-23 10:17:00,56.1,42.8,24.10,South,180,8.0,14.0,61,0.00,,,0.00,meteohub,2013-06-23 16:17:00,
2013-06-23 10:22:00,56.1,44.1,24.10,SW,225,13.0,14.0,64,0.00,,,0.00,meteohub,2013-06-23 16:22:00,
2013-06-23 10:27:00,56.1,45.0,24.09,South,180,9.0,14.0,66,0.00,,,0.00,meteohub,2013-06-23 16:27:00,
2013-06-23 10:32:00,56.1,45.0,24.09,SSW,203,11.0,15.0,66,0.00,,,0.00,meteohub,2013-06-23 16:32:00,
2013-06-23 10:37:00,56.7,40.3,24.10,West,270,10.0,15.0,54,0.00,,,0.00,meteohub,2013-06-23 16:37:00,
2013-06-23 10:42:00,56.7,39.2,24.09,West,270,14.0,15.0,52,0.00,,,0.00,meteohub,2013-06-23 16:42:00,
2013-06-23 10:52:00,56.7,40.3,24.09,West,270,11.0,15.0,54,0.00,,,0.00,meteohub,2013-06-23 16:52:00,
2013-06-23 10:57:00,56.7,38.7,24.09,West,270,11.0,15.0,51,0.00,,,0.00,meteohub,2013-06-23 16:57:00,
2013-06-23 11:03:00,56.8,40.5,24.09,West,270,10.0,17.0,54,0.00,,,0.00,meteohub,2013-06-23 17:03:00,
2013-06-23 11:07:00,56.8,40.5,24.09,West,270,10.0,17.0,54,0.00,,,0.00,meteohub,2013-06-23 17:07:00,
2013-06-23 11:12:00,57.2,42.1,24.09,West,270,8.0,17.0,57,0.00,,,0.00,meteohub,2013-06-23 17:12:00,
2013-06-23 11:17:00,57.4,38.3,24.09,South,180,12.0,14.0,49,0.00,,,0.00,meteohub,2013-06-23 17:17:00,
2013-06-23 11:22:00,58.3,36.0,24.09,SW,225,13.0,14.0,43,0.00,,,0.00,meteohub,2013-06-23 17:22:00,
2013-06-23 11:27:00,58.3,40.3,24.09,West,270,10.0,14.0,51,0.00,,,0.00,meteohub,2013-06-23 17:27:00,
2013-06-23 11:32:00,58.6,36.9,24.09,SW,225,16.0,16.0,44,0.00,,,0.00,meteohub,2013-06-23 17:32:00,
2013-06-23 11:37:00,58.6,39.6,24.09,WSW,248,17.0,17.0,49,0.00,,,0.00,meteohub,2013-06-23 17:37:00,
2013-06-23 11:42:00,58.3,40.3,24.08,SW,225,12.0,17.0,51,0.00,,,0.00,meteohub,2013-06-23 17:42:00,
2013-06-23 11:47:00,58.8,37.6,24.08,West,270,17.0,17.0,45,0.00,,,0.00,meteohub,2013-06-23 17:47:00,
2013-06-23 11:52:00,57.7,36.0,24.08,SW,225,12.0,17.0,44,0.00,,,0.00,meteohub,2013-06-23 17:52:00,
2013-06-23 11:57:00,59.2,38.5,24.08,WSW,248,4.0,17.0,46,0.00,,,0.00,meteohub,2013-06-23 17:57:00,
2013-06-23 12:02:00,59.7,37.2,24.08,West,270,14.0,17.0,43,0.00,,,0.00,meteohub,2013-06-23 18:02:00,
2013-06-23 12:07:00,59.7,37.2,24.08,West,270,14.0,15.0,43,0.00,,,0.00,meteohub,2013-06-23 18:07:00,
2013-06-23 12:12:00,60.1,40.3,24.08,SW,225,17.0,17.0,48,0.00,,,0.00,meteohub,2013-06-23 18:12:00,
2013-06-23 12:17:00,59.2,37.2,24.08,WSW,248,17.0,17.0,44,0.00,,,0.00,meteohub,2013-06-23 18:17:00,
2013-06-23 12:22:00,59.5,39.4,24.08,NW,315,12.0,18.0,47,0.00,,,0.00,meteohub,2013-06-23 18:22:00,
2013-06-23 12:27:00,59.5,40.3,24.08,SW,225,10.0,18.0,49,0.00,,,0.00,meteohub,2013-06-23 18:27:00,
2013-06-23 12:32:00,60.1,36.3,24.07,SSW,203,10.0,18.0,41,0.00,,,0.00,meteohub,2013-06-23 18:32:00,
2013-06-23 12:37:00,61.0,39.6,24.08,NW,315,15.0,18.0,45,0.00,,,0.00,meteohub,2013-06-23 18:37:00,
2013-06-23 12:42:00,60.6,39.2,24.08,NW,315,12.0,18.0,45,0.00,,,0.00,meteohub,2013-06-23 18:42:00,
2013-06-23 12:47:00,60.8,38.7,24.08,SW,225,14.0,19.0,44,0.00,,,0.00,meteohub,2013-06-23 18:47:00,
2013-06-23 12:52:00,60.8,39.9,24.07,SW,225,11.0,19.0,46,0.00,,,0.00,meteohub,2013-06-23 18:52:00,
2013-06-23 12:57:00,61.0,38.8,24.07,West,270,13.0,18.0,44,0.00,,,0.00,meteohub,2013-06-23 18:57:00,
2013-06-23 13:02:00,60.6,36.1,24.07,West,270,15.0,19.0,40,0.00,,,0.00,meteohub,2013-06-23 19:02:00,
2013-06-23 13:07:00,60.6,36.1,24.07,West,270,15.0,19.0,40,0.00,,,0.00,meteohub,2013-06-23 19:07:00,
2013-06-23 13:12:00,61.2,41.9,24.07,NW,315,14.0,19.0,49,0.00,,,0.00,meteohub,2013-06-23 19:12:00,
2013-06-23 13:17:00,61.0,37.8,24.07,West,270,12.0,18.0,42,0.00,,,0.00,meteohub,2013-06-23 19:17:00,
2013-06-23 13:22:00,61.0,37.0,24.07,NW,315,12.0,21.0,41,0.00,,,0.00,meteohub,2013-06-23 19:22:00,
2013-06-23 13:27:00,61.5,36.3,24.07,West,270,17.0,21.0,39,0.00,,,0.00,meteohub,2013-06-23 19:27:00,
2013-06-23 13:32:00,60.8,36.9,24.07,NW,315,17.0,18.0,41,0.00,,,0.00,meteohub,2013-06-23 19:32:00,
2013-06-23 13:37:00,60.8,35.1,24.07,West,270,20.0,20.0,38,0.00,,,0.00,meteohub,2013-06-23 19:37:00,
2013-06-23 13:42:00,61.2,31.8,24.07,NW,315,11.0,20.0,33,0.00,,,0.00,meteohub,2013-06-23 19:42:00,
2013-06-23 13:47:00,60.8,35.6,24.07,West,270,21.0,21.0,39,0.00,,,0.00,meteohub,2013-06-23 19:47:00,
2013-06-23 13:52:00,60.8,36.9,24.07,NW,315,15.0,23.0,41,0.00,,,0.00,meteohub,2013-06-23 19:52:00,
2013-06-23 13:57:00,61.3,36.1,24.07,West,270,16.0,23.0,39,0.00,,,0.00,meteohub,2013-06-23 19:57:00,
2013-06-23 14:02:00,61.5,37.0,24.06,NW,315,19.0,23.0,40,0.00,,,0.00,meteohub,2013-06-23 20:02:00,
2013-06-23 14:07:00,61.5,37.0,24.06,NW,315,19.0,19.0,40,0.00,,,0.00,meteohub,2013-06-23 20:07:00,
2013-06-23 14:12:00,61.5,34.3,24.06,West,270,20.0,22.0,36,0.00,,,0.00,meteohub,2013-06-23 20:12:00,
2013-06-23 14:17:00,62.2,33.4,24.06,WSW,248,16.0,22.0,34,0.00,,,0.00,meteohub,2013-06-23 20:17:00,
2013-06-23 14:22:00,63.5,36.7,24.06,NW,315,17.0,24.0,37,0.00,,,0.00,meteohub,2013-06-23 20:22:00,
2013-06-23 14:27:00,63.0,32.7,24.06,West,270,16.0,24.0,32,0.00,,,0.00,meteohub,2013-06-23 20:27:00,
2013-06-23 14:32:00,63.0,34.2,24.06,SW,225,18.0,20.0,34,0.00,,,0.00,meteohub,2013-06-23 20:32:00,
2013-06-23 14:37:00,63.1,37.8,24.06,West,270,16.0,20.0,39,0.00,,,0.00,meteohub,2013-06-23 20:37:00,
2013-06-23 14:42:00,63.1,35.1,24.06,WNW,293,15.0,19.0,35,0.00,,,0.00,meteohub,2013-06-23 20:42:00,
2013-06-23 14:47:00,62.8,34.7,24.06,SW,225,15.0,18.0,35,0.00,,,0.00,meteohub,2013-06-23 20:47:00,
2013-06-23 14:52:00,63.1,34.3,24.05,SW,225,16.0,21.0,34,0.00,,,0.00,meteohub,2013-06-23 20:52:00,
2013-06-23 14:57:00,63.3,36.7,24.05,SSW,203,14.0,21.0,37,0.00,,,0.00,meteohub,2013-06-23 20:57:00,
2013-06-23 15:02:00,64.0,38.7,24.05,NW,315,10.0,21.0,39,0.00,,,0.00,meteohub,2013-06-23 21:02:00,
2013-06-23 15:07:00,64.0,38.7,24.05,NW,315,10.0,17.0,39,0.00,,,0.00,meteohub,2013-06-23 21:07:00,
2013-06-23 15:12:00,62.8,34.7,24.05,NW,315,8.0,17.0,35,0.00,,,0.00,meteohub,2013-06-23 21:12:00,
2013-06-23 15:17:00,64.2,36.0,24.05,West,270,21.0,21.0,35,0.00,,,0.00,meteohub,2013-06-23 21:17:00,
2013-06-23 15:22:00,64.0,35.1,24.05,West,270,18.0,21.0,34,0.00,,,0.00,meteohub,2013-06-23 21:22:00,
2013-06-23 15:27:00,63.9,37.8,24.05,West,270,16.0,21.0,38,0.00,,,0.00,meteohub,2013-06-23 21:27:00,
2013-06-23 15:32:00,62.8,36.9,24.06,West,270,11.0,21.0,38,0.00,,,0.00,meteohub,2013-06-23 21:32:00,
2013-06-23 15:37:00,62.6,37.9,24.05,West,270,7.0,18.0,40,0.00,,,0.00,meteohub,2013-06-23 21:37:00,
2013-06-23 15:42:00,61.9,36.7,24.05,WSW,248,13.0,17.0,39,0.00,,,0.00,meteohub,2013-06-23 21:42:00,
2013-06-23 15:47:00,63.0,40.6,24.05,NW,315,4.0,14.0,44,0.00,,,0.00,meteohub,2013-06-23 21:47:00,
2013-06-23 15:52:00,63.5,36.1,24.05,NW,315,10.0,14.0,36,0.00,,,0.00,meteohub,2013-06-23 21:52:00,
2013-06-23 15:57:00,64.8,39.9,24.05,NW,315,11.0,14.0,40,0.00,,,0.00,meteohub,2013-06-23 21:57:00,
2013-06-23 16:02:00,64.4,34.0,24.05,NW,315,17.0,17.0,32,0.00,,,0.00,meteohub,2013-06-23 22:02:00,
2013-06-23 16:07:00,64.4,34.0,24.04,NW,315,17.0,17.0,32,0.00,,,0.00,meteohub,2013-06-23 22:07:00,
2013-06-23 16:12:00,64.0,36.5,24.05,NW,315,14.0,19.0,36,0.00,,,0.00,meteohub,2013-06-23 22:12:00,
2013-06-23 16:17:00,64.6,35.6,24.04,NW,315,13.0,19.0,34,0.00,,,0.00,meteohub,2013-06-23 22:17:00,
2013-06-23 16:22:00,64.8,36.5,24.04,West,270,10.0,19.0,35,0.00,,,0.00,meteohub,2013-06-23 22:22:00,
2013-06-23 16:27:00,65.3,32.2,24.04,West,270,20.0,21.0,29,0.00,,,0.00,meteohub,2013-06-23 22:27:00,
2013-06-23 16:32:00,65.3,35.4,24.04,West,270,17.0,21.0,33,0.00,,,0.00,meteohub,2013-06-23 22:32:00,
2013-06-23 16:37:00,65.5,34.9,24.04,West,270,17.0,21.0,32,0.00,,,0.00,meteohub,2013-06-23 22:37:00,
2013-06-23 16:42:00,65.7,32.5,24.04,West,270,27.0,27.0,29,0.00,,,0.00,meteohub,2013-06-23 22:42:00,
2013-06-23 16:47:00,65.3,33.1,24.04,West,270,18.0,27.0,30,0.00,,,0.00,meteohub,2013-06-23 22:47:00,
2013-06-23 16:52:00,65.3,31.3,24.04,SW,225,21.0,27.0,28,0.00,,,0.00,meteohub,2013-06-23 22:52:00,
2013-06-23 16:57:00,64.0,33.6,24.04,West,270,14.0,27.0,32,0.00,,,0.00,meteohub,2013-06-23 22:57:00,
2013-06-23 17:02:00,64.6,38.5,24.04,West,270,15.0,21.0,38,0.00,,,0.00,meteohub,2013-06-23 23:02:00,
2013-06-23 17:07:00,64.6,38.5,24.04,West,270,15.0,21.0,38,0.00,,,0.00,meteohub,2013-06-23 23:07:00,
2013-06-23 17:12:00,65.1,33.8,24.03,West,270,20.0,20.0,31,0.00,,,0.00,meteohub,2013-06-23 23:12:00,
2013-06-23 17:17:00,64.9,33.6,24.04,West,270,16.0,21.0,31,0.00,,,0.00,meteohub,2013-06-23 23:17:00,
2013-06-23 17:22:00,64.9,32.0,24.04,West,270,20.0,21.0,29,0.00,,,0.00,meteohub,2013-06-23 23:22:00,
2013-06-23 17:27:00,64.6,34.9,24.03,West,270,12.0,21.0,33,0.00,,,0.00,meteohub,2013-06-23 23:27:00,
2013-06-23 17:32:00,64.2,32.9,24.03,NW,315,17.0,21.0,31,0.00,,,0.00,meteohub,2013-06-23 23:32:00,
2013-06-23 17:37:00,64.8,35.8,24.03,West,270,13.0,21.0,34,0.00,,,0.00,meteohub,2013-06-23 23:37:00,
2013-06-23 17:42:00,64.8,35.1,24.03,NW,315,14.0,21.0,33,0.00,,,0.00,meteohub,2013-06-23 23:42:00,
2013-06-23 17:47:00,64.2,34.5,24.03,NW,315,23.0,23.0,33,0.00,,,0.00,meteohub,2013-06-23 23:47:00,
2013-06-23 17:52:00,63.9,34.9,24.03,West,270,17.0,23.0,34,0.00,,,0.00,meteohub,2013-06-23 23:52:00,
2013-06-23 17:57:00,63.7,34.7,24.03,West,270,16.0,23.0,34,0.00,,,0.00,meteohub,2013-06-23 23:57:00,
2013-06-23 18:02:00,63.7,34.7,24.03,West,270,16.0,23.0,34,0.00,,,0.00,meteohub,2013-06-24 00:02:00,
2013-06-23 18:07:00,63.7,34.7,24.03,West,270,16.0,20.0,34,0.00,,,0.00,meteohub,2013-06-24 00:07:00,
2013-06-23 18:12:00,64.0,32.7,24.03,NW,315,11.0,17.0,31,0.00,,,0.00,meteohub,2013-06-24 00:12:00,
2013-06-23 18:17:00,63.9,35.6,24.03,NW,315,15.0,16.0,35,0.00,,,0.00,meteohub,2013-06-24 00:17:00,
2013-06-23 18:22:00,63.9,34.9,24.03,NW,315,14.0,16.0,34,0.00,,,0.00,meteohub,2013-06-24 00:22:00,
2013-06-23 18:27:00,63.7,36.1,24.02,NW,315,14.0,16.0,36,0.00,,,0.00,meteohub,2013-06-24 00:27:00,
2013-06-23 18:32:00,63.7,37.6,24.03,West,270,13.0,16.0,38,0.00,,,0.00,meteohub,2013-06-24 00:32:00,
2013-06-23 18:37:00,64.2,38.1,24.03,NW,315,10.0,15.0,38,0.00,,,0.00,meteohub,2013-06-24 00:37:00,
2013-06-23 18:42:00,64.9,36.0,24.03,NW,315,13.0,14.0,34,0.00,,,0.00,meteohub,2013-06-24 00:42:00,
2013-06-23 18:47:00,65.3,37.6,24.03,NW,315,10.0,14.0,36,0.00,,,0.00,meteohub,2013-06-24 00:47:00,
2013-06-23 18:52:00,65.3,41.0,24.03,NW,315,11.0,14.0,41,0.00,,,0.00,meteohub,2013-06-24 00:52:00,
2013-06-23 18:57:00,65.1,38.8,24.03,NW,315,8.0,13.0,38,0.00,,,0.00,meteohub,2013-06-24 00:57:00,
2013-06-23 19:02:00,64.6,38.5,24.03,NW,315,13.0,13.0,38,0.00,,,0.00,meteohub,2013-06-24 01:02:00,
2013-06-23 19:07:00,64.6,38.5,24.03,NW,315,13.0,13.0,38,0.00,,,0.00,meteohub,2013-06-24 01:07:00,
2013-06-23 19:12:00,64.2,38.1,24.03,NW,315,7.0,13.0,38,0.00,,,0.00,meteohub,2013-06-24 01:12:00,
2013-06-23 19:17:00,64.2,41.9,24.03,North,0,7.0,13.0,44,0.00,,,0.00,meteohub,2013-06-24 01:17:00,
2013-06-23 19:22:00,63.7,41.4,24.03,North,0,7.0,13.0,44,0.00,,,0.00,meteohub,2013-06-24 01:22:00,
2013-06-23 19:27:00,63.1,40.3,24.03,North,0,9.0,10.0,43,0.00,,,0.00,meteohub,2013-06-24 01:27:00,
2013-06-23 19:32:00,63.0,43.5,24.03,North,0,7.0,9.0,49,0.00,,,0.00,meteohub,2013-06-24 01:32:00,
2013-06-23 19:37:00,62.8,42.3,24.04,North,0,6.0,9.0,47,0.00,,,0.00,meteohub,2013-06-24 01:37:00,
2013-06-23 19:42:00,63.3,43.3,24.04,NE,45,5.0,9.0,48,0.00,,,0.00,meteohub,2013-06-24 01:42:00,
2013-06-23 19:47:00,63.7,43.2,24.04,NE,45,7.0,8.0,47,0.00,,,0.00,meteohub,2013-06-24 01:47:00,
2013-06-23 19:52:00,63.5,44.1,24.04,NE,45,3.0,7.0,49,0.00,,,0.00,meteohub,2013-06-24 01:52:00,
2013-06-23 19:57:00,63.7,42.4,24.04,NE,45,6.0,7.0,46,0.00,,,0.00,meteohub,2013-06-24 01:57:00,
2013-06-23 20:02:00,63.5,44.6,24.04,NE,45,5.0,7.0,50,0.00,,,0.00,meteohub,2013-06-24 02:02:00,
2013-06-23 20:07:00,63.5,44.6,24.04,NE,45,5.0,6.0,50,0.00,,,0.00,meteohub,2013-06-24 02:07:00,
2013-06-23 20:12:00,61.7,43.3,24.03,North,0,4.0,6.0,51,0.00,,,0.00,meteohub,2013-06-24 02:12:00,
2013-06-23 20:17:00,61.0,41.7,24.04,North,0,5.0,5.0,49,0.00,,,0.00,meteohub,2013-06-24 02:17:00,
2013-06-23 20:22:00,60.8,42.1,24.03,North,0,5.0,5.0,50,0.00,,,0.00,meteohub,2013-06-24 02:22:00,
2013-06-23 20:27:00,60.8,41.5,24.03,North,0,5.0,5.0,49,0.00,,,0.00,meteohub,2013-06-24 02:27:00,
2013-06-23 20:32:00,60.8,41.0,24.03,North,0,4.0,5.0,48,0.00,,,0.00,meteohub,2013-06-24 02:32:00,
2013-06-23 20:37:00,60.6,40.8,24.03,North,0,4.0,5.0,48,0.00,,,0.00,meteohub,2013-06-24 02:37:00,
2013-06-23 20:47:00,60.1,41.4,24.03,North,0,3.0,4.0,50,0.00,,,0.00,meteohub,2013-06-24 02:47:00,
2013-06-23 20:52:00,59.7,39.4,24.03,North,0,2.0,4.0,47,0.00,,,0.00,meteohub,2013-06-24 02:52:00,
2013-06-23 20:57:00,59.7,38.3,24.03,NE,45,4.0,4.0,45,0.00,,,0.00,meteohub,2013-06-24 02:57:00,
2013-06-23 21:02:00,59.7,37.8,24.03,NE,45,3.0,4.0,44,0.00,,,0.00,meteohub,2013-06-24 03:02:00,
2013-06-23 21:07:00,59.7,37.8,24.03,NE,45,3.0,4.0,44,0.00,,,0.00,meteohub,2013-06-24 03:07:00,
2013-06-23 21:12:00,59.5,37.6,24.03,NE,45,2.0,4.0,44,0.00,,,0.00,meteohub,2013-06-24 03:12:00,
2013-06-23 21:17:00,59.5,37.0,24.03,East,90,2.0,3.0,43,0.00,,,0.00,meteohub,2013-06-24 03:17:00,
2013-06-23 21:22:00,59.5,36.5,24.03,East,90,1.0,3.0,42,0.00,,,0.00,meteohub,2013-06-24 03:22:00,
2013-06-23 21:27:00,59.5,35.8,24.04,South,180,0.0,2.0,41,0.00,,,0.00,meteohub,2013-06-24 03:27:00,
2013-06-23 21:32:00,59.2,35.4,24.04,South,180,0.0,2.0,41,0.00,,,0.00,meteohub,2013-06-24 03:32:00,
2013-06-23 21:37:00,59.2,35.4,24.04,South,180,2.0,2.0,41,0.00,,,0.00,meteohub,2013-06-24 03:37:00,
2013-06-23 21:42:00,59.4,35.6,24.04,South,180,3.0,3.0,41,0.00,,,0.00,meteohub,2013-06-24 03:42:00,
2013-06-23 21:47:00,59.4,35.6,24.04,South,180,4.0,4.0,41,0.00,,,0.00,meteohub,2013-06-24 03:47:00,
2013-06-23 21:52:00,59.2,36.7,24.04,SE,135,2.0,4.0,43,0.00,,,0.00,meteohub,2013-06-24 03:52:00,
2013-06-23 21:57:00,59.0,36.5,24.04,SE,135,2.0,4.0,43,0.00,,,0.00,meteohub,2013-06-24 03:57:00,
2013-06-23 22:02:00,59.0,36.5,24.04,East,90,3.0,4.0,43,0.00,,,0.00,meteohub,2013-06-24 04:02:00,
2013-06-23 22:07:00,59.0,36.5,24.04,East,90,3.0,3.0,43,0.00,,,0.00,meteohub,2013-06-24 04:07:00,
2013-06-23 22:12:00,59.7,36.5,24.04,East,90,7.0,7.0,42,0.00,,,0.00,meteohub,2013-06-24 04:12:00,
2013-06-23 22:17:00,59.7,36.0,24.04,East,90,4.0,7.0,41,0.00,,,0.00,meteohub,2013-06-24 04:17:00,
2013-06-23 22:22:00,59.9,35.6,24.04,East,90,4.0,7.0,40,0.00,,,0.00,meteohub,2013-06-24 04:22:00,
2013-06-23 22:27:00,59.9,36.1,24.04,East,90,4.0,7.0,41,0.00,,,0.00,meteohub,2013-06-24 04:27:00,
2013-06-23 22:32:00,60.1,35.6,24.04,East,90,4.0,4.0,40,0.00,,,0.00,meteohub,2013-06-24 04:32:00,
2013-06-23 22:37:00,60.1,35.6,24.04,East,90,4.0,4.0,40,0.00,,,0.00,meteohub,2013-06-24 04:37:00,
2013-06-23 22:47:00,59.9,36.1,24.03,East,90,4.0,4.0,41,0.00,,,0.00,meteohub,2013-06-24 04:47:00,
2013-06-23 22:52:00,59.9,36.1,24.03,East,90,4.0,4.0,41,0.00,,,0.00,meteohub,2013-06-24 04:52:00,
2013-06-23 22:57:00,60.1,35.6,24.03,East,90,4.0,4.0,40,0.00,,,0.00,meteohub,2013-06-24 04:57:00,
2013-06-23 23:02:00,60.1,35.1,24.03,SE,135,3.0,4.0,39,0.00,,,0.00,meteohub,2013-06-24 05:02:00,
2013-06-23 23:07:00,60.1,35.1,24.03,SE,135,3.0,4.0,39,0.00,,,0.00,meteohub,2013-06-24 05:07:00,
2013-06-23 23:12:00,60.1,35.6,24.03,East,90,2.0,4.0,40,0.00,,,0.00,meteohub,2013-06-24 05:12:00,
2013-06-23 23:17:00,60.1,35.6,24.03,South,180,2.0,3.0,40,0.00,,,0.00,meteohub,2013-06-24 05:17:00,
2013-06-23 23:22:00,59.9,35.6,24.03,South,180,2.0,3.0,40,0.00,,,0.00,meteohub,2013-06-24 05:22:00,
2013-06-23 23:27:00,59.9,38.5,24.04,SE,135,4.0,4.0,45,0.00,,,0.00,meteohub,2013-06-24 05:27:00,
2013-06-23 23:32:00,59.4,37.4,24.03,South,180,2.0,4.0,44,0.00,,,0.00,meteohub,2013-06-24 05:32:00,
2013-06-23 23:37:00,59.4,35.6,24.03,West,270,3.0,4.0,41,0.00,,,0.00,meteohub,2013-06-24 05:37:00,
2013-06-23 23:42:00,59.7,35.4,24.03,NW,315,2.0,4.0,40,0.00,,,0.00,meteohub,2013-06-24 05:42:00,
2013-06-23 23:47:00,59.7,35.4,24.03,North,0,2.0,3.0,40,0.00,,,0.00,meteohub,2013-06-24 05:47:00,
2013-06-23 23:52:00,59.4,35.1,24.03,South,180,2.0,3.0,40,0.00,,,0.00,meteohub,2013-06-24 05:52:00,